| time (UTC) | temp F | wind direction | speed MPH | gust MPH | rain 1hr in | rain 24hr in | rain mn in | humidity % | barometer mb |
| 20260905224609 | 77 | 65 | 5.0 | 9.0 | 0.00 | 0.00 | 0.00 | 82 | 1016.0 |
| 20260905224052 | 77 | 60 | 6.0 | 11.0 | 0.00 | 0.00 | 0.00 | 82 | 1016.0 |
| 20260905223552 | 77 | 62 | 4.0 | 11.0 | 0.00 | 0.00 | 0.00 | 82 | 1015.9 |
| 20260905223103 | 77 | 161 | 6.0 | 11.0 | 0.00 | 0.00 | 0.00 | 82 | 1016.0 |
| 20260905222553 | 77 | 85 | 7.0 | 10.0 | 0.00 | 0.00 | 0.00 | 82 | 1015.9 |
| 20260905222055 | 77 | 84 | 6.0 | 10.0 | 0.00 | 0.00 | 0.00 | 82 | 1016.0 |
| 20260905221607 | 77 | 53 | 4.0 | 10.0 | 0.00 | 0.00 | 0.00 | 82 | 1016.0 |
| 20260905221057 | 77 | 86 | 4.0 | 11.0 | 0.00 | 0.00 | 0.00 | 82 | 1016.0 |
| 20260905220555 | 77 | 76 | 5.0 | 13.0 | 0.00 | 0.00 | 0.00 | 82 | 1015.8 |
| 20260905220110 | 78 | 51 | 8.0 | 14.0 | 0.00 | 0.00 | 0.00 | 81 | 1015.8 |
| 20260905215553 | 78 | 66 | 8.0 | 14.0 | 0.00 | 0.00 | 0.00 | 81 | 1015.7 |
| 20260905215054 | 78 | 56 | 6.0 | 11.0 | 0.00 | 0.00 | 0.00 | 81 | 1015.7 |
| 20260905214559 | 78 | 130 | 6.0 | 11.0 | 0.00 | 0.00 | 0.00 | 81 | 1015.9 |
| 20260905214053 | 78 | 62 | 5.0 | 10.0 | 0.00 | 0.00 | 0.00 | 81 | 1016.0 |
| 20260905213553 | 78 | 138 | 4.0 | 12.0 | 0.00 | 0.00 | 0.00 | 81 | 1015.9 |
| 20260905213104 | 78 | 68 | 7.0 | 14.0 | 0.00 | 0.00 | 0.00 | 81 | 1015.8 |
| 20260905212552 | 78 | 63 | 9.0 | 14.0 | 0.00 | 0.00 | 0.00 | 81 | 1015.7 |
| 20260905212056 | 78 | 70 | 8.0 | 12.0 | 0.00 | 0.00 | 0.00 | 81 | 1015.8 |
| 20260905211630 | 78 | 56 | 7.0 | 12.0 | 0.00 | 0.00 | 0.00 | 81 | 1016.0 |
| 20260905211052 | 78 | 80 | 6.0 | 11.0 | 0.00 | 0.00 | 0.00 | 81 | 1016.2 |
| 20260905210553 | 78 | 70 | 7.0 | 11.0 | 0.00 | 0.00 | 0.00 | 81 | 1016.3 |
| 20260905210104 | 78 | 71 | 6.0 | 9.0 | 0.00 | 0.00 | 0.00 | 81 | 1016.3 |
| 20260905205552 | 78 | 61 | 3.0 | 8.0 | 0.00 | 0.00 | 0.00 | 81 | 1016.4 |
| 20260905205054 | 78 | 58 | 4.0 | 9.0 | 0.00 | 0.00 | 0.00 | 81 | 1016.5 |
| 20260905204608 | 78 | 73 | 7.0 | 10.0 | 0.00 | 0.00 | 0.00 | 81 | 1016.4 |
| 20260905204056 | 78 | 51 | 6.0 | 12.0 | 0.00 | 0.00 | 0.00 | 81 | 1016.4 |
| 20260905203557 | 78 | 51 | 6.0 | 12.0 | 0.00 | 0.00 | 0.00 | 80 | 1016.6 |
| 20260905203119 | 78 | 72 | 6.0 | 13.0 | 0.00 | 0.00 | 0.00 | 80 | 1016.7 |
| 20260905202557 | 78 | 54 | 7.0 | 13.0 | 0.00 | 0.00 | 0.00 | 80 | 1016.7 |
| 20260905202057 | 78 | 51 | 6.0 | 10.0 | 0.00 | 0.00 | 0.00 | 79 | 1016.7 |
| 20260905201607 | 78 | 58 | 6.0 | 10.0 | 0.00 | 0.00 | 0.00 | 80 | 1016.8 |
| 20260905201057 | 78 | 105 | 6.0 | 10.0 | 0.00 | 0.00 | 0.00 | 80 | 1016.9 |
| 20260905200557 | 78 | 61 | 5.0 | 10.0 | 0.00 | 0.00 | 0.00 | 79 | 1017.1 |
| 20260905200118 | 78 | 31 | 5.0 | 10.0 | 0.00 | 0.00 | 0.00 | 79 | 1017.2 |
| 20260905195557 | 79 | 62 | 5.0 | 10.0 | 0.00 | 0.00 | 0.00 | 79 | 1017.1 |
| 20260905195057 | 79 | 65 | 5.0 | 10.0 | 0.00 | 0.00 | 0.00 | 79 | 1017.2 |
| 20260905194605 | 79 | 89 | 4.0 | 7.0 | 0.00 | 0.00 | 0.00 | 78 | 1017.4 |
| 20260905194057 | 80 | 73 | 2.0 | 5.0 | 0.00 | 0.00 | 0.00 | 77 | 1017.4 |
| 20260905193556 | 80 | 62 | 2.0 | 7.0 | 0.00 | 0.00 | 0.00 | 77 | 1017.5 |
| 20260905193105 | 80 | 85 | 4.0 | 7.0 | 0.00 | 0.00 | 0.00 | 77 | 1017.7 |
| 20260905192556 | 81 | 60 | 2.0 | 4.0 | 0.00 | 0.00 | 0.00 | 76 | 1017.7 |
| 20260905192057 | 81 | 150 | 1.0 | 4.0 | 0.00 | 0.00 | 0.00 | 77 | 1017.6 |
| 20260905191607 | 81 | 74 | 1.0 | 5.0 | 0.00 | 0.00 | 0.00 | 76 | 1017.7 |
| 20260905191057 | 81 | 127 | 2.0 | 5.0 | 0.00 | 0.00 | 0.00 | 77 | 1017.8 |
| 20260905190558 | 81 | 0 | 1.0 | 4.0 | 0.00 | 0.00 | 0.00 | 75 | 1017.9 |
| 20260905185557 | 81 | 44 | 1.0 | 4.0 | 0.00 | 0.00 | 0.00 | 73 | 1018.0 |
| 20260905185057 | 82 | 140 | 0.0 | 5.0 | 0.00 | 0.00 | 0.00 | 74 | 1017.9 |
| 20260905184613 | 81 | 120 | 2.0 | 5.0 | 0.00 | 0.00 | 0.00 | 77 | 1017.9 |
| 20260905184057 | 81 | 142 | 2.0 | 5.0 | 0.00 | 0.00 | 0.00 | 77 | 1017.9 |
| 20260905183557 | 80 | 156 | 0.0 | 4.0 | 0.00 | 0.00 | 0.00 | 78 | 1017.9 |
| 20260905183105 | 79 | 99 | 1.0 | 3.0 | 0.00 | 0.00 | 0.00 | 78 | 1017.9 |
| 20260905182557 | 79 | 46 | 2.0 | 3.0 | 0.00 | 0.00 | 0.00 | 78 | 1018.1 |
| 20260905182056 | 79 | 316 | 1.0 | 5.0 | 0.00 | 0.00 | 0.00 | 79 | 1018.0 |
| 20260905181612 | 79 | 69 | 1.0 | 5.0 | 0.00 | 0.00 | 0.00 | 79 | 1018.0 |
| 20260905181057 | 79 | 86 | 1.0 | 4.0 | 0.00 | 0.00 | 0.00 | 78 | 1018.2 |
| 20260905180556 | 79 | 121 | 1.0 | 4.0 | 0.00 | 0.00 | 0.00 | 78 | 1018.2 |
| 20260905180107 | 79 | 162 | 1.0 | 6.0 | 0.00 | 0.00 | 0.00 | 79 | 1018.1 |
| 20260905175557 | 79 | 150 | 2.0 | 6.0 | 0.00 | 0.00 | 0.00 | 80 | 1018.1 |
| 20260905175056 | 79 | 75 | 2.0 | 5.0 | 0.00 | 0.00 | 0.00 | 79 | 1018.1 |
| 20260905174602 | 78 | 46 | 2.0 | 5.0 | 0.00 | 0.00 | 0.00 | 80 | 1018.4 |
| 20260905174056 | 78 | 159 | 2.0 | 5.0 | 0.00 | 0.00 | 0.00 | 80 | 1018.7 |
| 20260905173557 | 78 | 181 | 1.0 | 4.0 | 0.00 | 0.00 | 0.00 | 80 | 1018.7 |
| 20260905173124 | 77 | 150 | 1.0 | 4.0 | 0.00 | 0.00 | 0.00 | 82 | 1018.8 |
| 20260905172556 | 77 | 266 | 0.0 | 3.0 | 0.00 | 0.00 | 0.00 | 82 | 1019.0 |
| 20260905172057 | 77 | 139 | 2.0 | 5.0 | 0.00 | 0.00 | 0.00 | 81 | 1019.1 |
| 20260905171601 | 77 | 68 | 1.0 | 6.0 | 0.00 | 0.00 | 0.00 | 82 | 1019.0 |
| 20260905171056 | 77 | 127 | 3.0 | 6.0 | 0.00 | 0.00 | 0.00 | 82 | 1018.9 |
| 20260905170557 | 77 | 146 | 2.0 | 6.0 | 0.00 | 0.00 | 0.00 | 82 | 1018.9 |
| 20260905170105 | 77 | 161 | 1.0 | 6.0 | 0.00 | 0.00 | 0.00 | 83 | 1018.9 |
| 20260905165556 | 76 | 101 | 2.0 | 6.0 | 0.00 | 0.00 | 0.00 | 84 | 1018.9 |
| 20260905165054 | 76 | 158 | 2.0 | 5.0 | 0.00 | 0.00 | 0.00 | 84 | 1018.9 |
| 20260905164606 | 76 | 139 | 2.0 | 5.0 | 0.00 | 0.00 | 0.00 | 85 | 1019.0 |
| 20260905164057 | 75 | 131 | 2.0 | 5.0 | 0.00 | 0.00 | 0.00 | 86 | 1018.9 |
| 20260905163553 | 75 | 75 | 1.0 | 4.0 | 0.00 | 0.00 | 0.00 | 86 | 1018.9 |
| 20260905163108 | 75 | 65 | 2.0 | 4.0 | 0.00 | 0.00 | 0.00 | 86 | 1018.9 |
| 20260905162557 | 75 | 68 | 2.0 | 4.0 | 0.00 | 0.00 | 0.00 | 86 | 1018.7 |
| 20260905162054 | 75 | 137 | 2.0 | 4.0 | 0.00 | 0.00 | 0.00 | 86 | 1018.7 |
| 20260905161604 | 75 | 62 | 2.0 | 4.0 | 0.00 | 0.00 | 0.00 | 86 | 1018.7 |
| 20260905161054 | 75 | 130 | 1.0 | 5.0 | 0.00 | 0.00 | 0.00 | 87 | 1018.6 |
| 20260905160558 | 75 | 123 | 2.0 | 5.0 | 0.00 | 0.00 | 0.00 | 88 | 1018.5 |
| 20260905160137 | 74 | 195 | 1.0 | 6.0 | 0.00 | 0.00 | 0.00 | 88 | 1018.5 |
| 20260905155554 | 74 | 109 | 2.0 | 7.0 | 0.00 | 0.00 | 0.00 | 89 | 1018.4 |
| 20260905155053 | 74 | 71 | 3.0 | 7.0 | 0.00 | 0.00 | 0.00 | 89 | 1018.5 |
| 20260905154604 | 74 | 71 | 4.0 | 8.0 | 0.00 | 0.00 | 0.00 | 89 | 1018.4 |
| 20260905154057 | 74 | 108 | 4.0 | 8.0 | 0.00 | 0.00 | 0.00 | 90 | 1018.4 |
| 20260905153556 | 73 | 100 | 3.0 | 8.0 | 0.00 | 0.00 | 0.00 | 90 | 1018.4 |
| 20260905153116 | 73 | 88 | 3.0 | 9.0 | 0.00 | 0.00 | 0.00 | 91 | 1018.4 |
| 20260905152556 | 72 | 104 | 5.0 | 9.0 | 0.00 | 0.00 | 0.00 | 91 | 1018.3 |
| 20260905152054 | 72 | 79 | 4.0 | 8.0 | 0.00 | 0.00 | 0.00 | 92 | 1018.3 |
| 20260905151604 | 72 | 56 | 3.0 | 8.0 | 0.00 | 0.00 | 0.00 | 93 | 1018.2 |
| 20260905151053 | 72 | 98 | 2.0 | 8.0 | 0.00 | 0.00 | 0.00 | 94 | 1018.3 |
| 20260905150553 | 71 | 58 | 3.0 | 8.0 | 0.00 | 0.00 | 0.00 | 94 | 1018.4 |
| 20260905150104 | 71 | 121 | 3.0 | 7.0 | 0.00 | 0.00 | 0.00 | 95 | 1018.4 |
| 20260905145554 | 71 | 72 | 4.0 | 7.0 | 0.00 | 0.00 | 0.00 | 96 | 1018.2 |
| 20260905145056 | 71 | 72 | 4.0 | 9.0 | 0.00 | 0.00 | 0.00 | 96 | 1018.1 |
| 20260905144605 | 70 | 71 | 4.0 | 9.0 | 0.00 | 0.00 | 0.00 | 96 | 1018.2 |
| 20260905144054 | 70 | 65 | 5.0 | 8.0 | 0.00 | 0.00 | 0.00 | 96 | 1018.1 |
| 20260905143554 | 70 | 65 | 3.0 | 7.0 | 0.00 | 0.00 | 0.00 | 97 | 1018.1 |
| 20260905143104 | 70 | 75 | 4.0 | 8.0 | 0.00 | 0.00 | 0.00 | 97 | 1018.1 |
| 20260905142556 | 70 | 79 | 4.0 | 9.0 | 0.00 | 0.00 | 0.00 | 97 | 1018.0 |
| 20260905142056 | 70 | 67 | 5.0 | 9.0 | 0.00 | 0.00 | 0.00 | 97 | 1017.9 |
| 20260905141602 | 70 | 60 | 5.0 | 9.0 | 0.00 | 0.00 | 0.00 | 97 | 1017.9 |
| 20260905141056 | 70 | 80 | 2.0 | 7.0 | 0.00 | 0.00 | 0.00 | 97 | 1017.9 |
| 20260905140556 | 69 | 68 | 3.0 | 7.0 | 0.00 | 0.00 | 0.00 | 97 | 1017.8 |
| 20260905140105 | 69 | 49 | 4.0 | 7.0 | 0.00 | 0.00 | 0.00 | 97 | 1017.8 |
| 20260905135556 | 69 | 58 | 4.0 | 6.0 | 0.00 | 0.00 | 0.00 | 97 | 1017.8 |
| 20260905135053 | 69 | 70 | 4.0 | 8.0 | 0.00 | 0.00 | 0.00 | 97 | 1017.8 |
| 20260905134610 | 69 | 62 | 4.0 | 8.0 | 0.00 | 0.00 | 0.00 | 97 | 1017.9 |
| 20260905134057 | 69 | 57 | 4.0 | 6.0 | 0.00 | 0.00 | 0.00 | 97 | 1017.7 |
| 20260905133557 | 69 | 24 | 3.0 | 6.0 | 0.00 | 0.00 | 0.00 | 97 | 1017.8 |
| 20260905133102 | 69 | 63 | 3.0 | 7.0 | 0.00 | 0.00 | 0.00 | 97 | 1017.7 |
| 20260905132557 | 69 | 72 | 3.0 | 7.0 | 0.00 | 0.00 | 0.00 | 97 | 1017.5 |
| 20260905132100 | 69 | 82 | 4.0 | 7.0 | 0.00 | 0.00 | 0.00 | 97 | 1017.6 |
| 20260905131607 | 69 | 67 | 4.0 | 7.0 | 0.00 | 0.00 | 0.00 | 97 | 1017.4 |
| 20260905131056 | 69 | 72 | 4.0 | 7.0 | 0.00 | 0.00 | 0.00 | 97 | 1017.3 |
| 20260905130557 | 69 | 53 | 3.0 | 6.0 | 0.00 | 0.00 | 0.00 | 97 | 1017.2 |
| 20260905125557 | 69 | 174 | 4.0 | 7.0 | 0.00 | 0.00 | 0.00 | 97 | 1016.8 |
| 20260905125056 | 69 | 68 | 4.0 | 7.0 | 0.00 | 0.00 | 0.00 | 97 | 1016.8 |
| 20260905124602 | 69 | 82 | 3.0 | 8.0 | 0.00 | 0.00 | 0.00 | 97 | 1016.6 |
| 20260905124056 | 69 | 56 | 4.0 | 8.0 | 0.00 | 0.00 | 0.00 | 97 | 1016.5 |
| 20260905123557 | 69 | 70 | 4.0 | 8.0 | 0.00 | 0.00 | 0.00 | 97 | 1016.5 |
| 20260905123058 | 69 | 62 | 3.0 | 8.0 | 0.00 | 0.00 | 0.00 | 97 | 1016.4 |
| 20260905122554 | 69 | 67 | 5.0 | 8.0 | 0.00 | 0.00 | 0.00 | 97 | 1016.3 |
| 20260905122054 | 69 | 120 | 4.0 | 8.0 | 0.00 | 0.00 | 0.00 | 97 | 1016.3 |
| 20260905121605 | 69 | 56 | 4.0 | 6.0 | 0.00 | 0.00 | 0.00 | 97 | 1016.4 |
| 20260905121054 | 69 | 68 | 3.0 | 6.0 | 0.00 | 0.00 | 0.00 | 97 | 1016.4 |
| 20260905120556 | 69 | 106 | 3.0 | 6.0 | 0.00 | 0.00 | 0.00 | 97 | 1016.4 |
| 20260905120119 | 69 | 76 | 3.0 | 6.0 | 0.00 | 0.00 | 0.00 | 97 | 1016.4 |
| 20260905115556 | 69 | 68 | 2.0 | 4.0 | 0.00 | 0.00 | 0.00 | 97 | 1016.4 |
| 20260905115056 | 69 | 77 | 2.0 | 4.0 | 0.00 | 0.00 | 0.00 | 97 | 1016.3 |
| 20260905114601 | 69 | 70 | 2.0 | 6.0 | 0.00 | 0.00 | 0.00 | 97 | 1016.4 |
| 20260905114056 | 69 | 75 | 3.0 | 6.0 | 0.00 | 0.00 | 0.00 | 97 | 1016.3 |
| 20260905113556 | 69 | 116 | 1.0 | 3.0 | 0.00 | 0.00 | 0.00 | 97 | 1016.3 |
| 20260905113104 | 69 | 49 | 1.0 | 5.0 | 0.00 | 0.00 | 0.00 | 97 | 1016.2 |
| 20260905112554 | 69 | 76 | 1.0 | 5.0 | 0.00 | 0.00 | 0.00 | 97 | 1016.2 |
| 20260905112053 | 69 | 70 | 2.0 | 3.0 | 0.00 | 0.00 | 0.00 | 97 | 1015.9 |
| 20260905111615 | 68 | 0 | 1.0 | 3.0 | 0.00 | 0.00 | 0.00 | 97 | 1016.0 |
| 20260905111054 | 68 | 63 | 2.0 | 3.0 | 0.00 | 0.00 | 0.00 | 97 | 1016.3 |
| 20260905110554 | 68 | 53 | 1.0 | 2.0 | 0.00 | 0.00 | 0.00 | 97 | 1016.2 |
| 20260905110104 | 68 | 55 | 1.0 | 3.0 | 0.00 | 0.00 | 0.00 | 97 | 1016.3 |
| 20260905105553 | 68 | 73 | 1.0 | 3.0 | 0.00 | 0.00 | 0.00 | 97 | 1016.3 |
| 20260905105053 | 68 | 76 | 2.0 | 3.0 | 0.00 | 0.00 | 0.00 | 97 | 1016.3 |
| 20260905104600 | 68 | 68 | 1.0 | 3.0 | 0.00 | 0.00 | 0.00 | 97 | 1016.3 |
| 20260905104054 | 68 | 51 | 1.0 | 3.0 | 0.00 | 0.00 | 0.00 | 97 | 1016.3 |
| 20260905103554 | 68 | 91 | 1.0 | 5.0 | 0.00 | 0.00 | 0.00 | 97 | 1016.1 |
| 20260905103104 | 68 | 60 | 1.0 | 5.0 | 0.00 | 0.00 | 0.00 | 97 | 1016.0 |
| 20260905102555 | 68 | 29 | 2.0 | 5.0 | 0.00 | 0.00 | 0.00 | 97 | 1016.1 |
| 20260905102053 | 68 | 56 | 2.0 | 5.0 | 0.00 | 0.00 | 0.00 | 97 | 1016.2 |
| 20260905101601 | 67 | 89 | 3.0 | 5.0 | 0.00 | 0.00 | 0.00 | 97 | 1016.1 |
| 20260905101055 | 67 | 46 | 3.0 | 6.0 | 0.00 | 0.00 | 0.00 | 97 | 1016.0 |
| 20260905100553 | 67 | 41 | 2.0 | 6.0 | 0.00 | 0.00 | 0.00 | 97 | 1016.1 |
| 20260905100107 | 67 | 69 | 2.0 | 5.0 | 0.00 | 0.00 | 0.00 | 97 | 1015.8 |
| 20260905095553 | 67 | 63 | 3.0 | 7.0 | 0.00 | 0.00 | 0.00 | 97 | 1015.4 |
| 20260905095053 | 67 | 69 | 3.0 | 7.0 | 0.00 | 0.00 | 0.00 | 97 | 1015.1 |
| 20260905094603 | 67 | 46 | 4.0 | 6.0 | 0.00 | 0.00 | 0.00 | 96 | 1015.0 |
| 20260905094055 | 67 | 80 | 3.0 | 7.0 | 0.00 | 0.00 | 0.00 | 96 | 1015.1 |
| 20260905093553 | 67 | 53 | 3.0 | 7.0 | 0.00 | 0.00 | 0.00 | 96 | 1015.3 |
| 20260905093104 | 67 | 57 | 4.0 | 8.0 | 0.00 | 0.00 | 0.00 | 96 | 1015.1 |
| 20260905092557 | 67 | 51 | 4.0 | 8.0 | 0.00 | 0.00 | 0.00 | 96 | 1015.1 |
| 20260905092053 | 67 | 48 | 5.0 | 8.0 | 0.00 | 0.00 | 0.00 | 96 | 1015.1 |
| 20260905091621 | 67 | 75 | 2.0 | 7.0 | 0.00 | 0.00 | 0.00 | 96 | 1015.1 |
| 20260905091055 | 67 | 54 | 3.0 | 7.0 | 0.00 | 0.00 | 0.00 | 96 | 1015.2 |
| 20260905090556 | 67 | 41 | 3.0 | 7.0 | 0.00 | 0.00 | 0.00 | 96 | 1015.4 |
| 20260905090121 | 67 | 53 | 4.0 | 7.0 | 0.00 | 0.00 | 0.00 | 96 | 1015.4 |
| 20260905085556 | 67 | 60 | 3.0 | 6.0 | 0.00 | 0.00 | 0.00 | 97 | 1015.4 |
| 20260905085052 | 66 | 51 | 1.0 | 3.0 | 0.00 | 0.00 | 0.00 | 96 | 1015.4 |
| 20260905084610 | 66 | 34 | 2.0 | 3.0 | 0.00 | 0.00 | 0.00 | 96 | 1015.6 |
| 20260905084056 | 66 | 50 | 2.0 | 3.0 | 0.00 | 0.00 | 0.00 | 96 | 1015.6 |
| 20260905083554 | 66 | 58 | 1.0 | 1.0 | 0.00 | 0.00 | 0.00 | 95 | 1015.6 |
| 20260905083103 | 66 | 70 | 0.0 | 1.0 | 0.00 | 0.00 | 0.00 | 95 | 1015.8 |
| 20260905082553 | 66 | 70 | 0.0 | 1.0 | 0.00 | 0.00 | 0.00 | 95 | 1015.8 |
| 20260905082054 | 67 | 0 | 0.0 | 1.0 | 0.00 | 0.00 | 0.00 | 95 | 1015.8 |
| 20260905081602 | 67 | 70 | 0.0 | 1.0 | 0.00 | 0.00 | 0.00 | 95 | 1015.9 |
| 20260905081053 | 67 | 0 | 0.0 | 2.0 | 0.00 | 0.00 | 0.00 | 95 | 1016.0 |
| 20260905080556 | 67 | 0 | 0.0 | 2.0 | 0.00 | 0.00 | 0.00 | 95 | 1016.0 |
| 20260905080107 | 67 | 29 | 0.0 | 2.0 | 0.00 | 0.00 | 0.00 | 95 | 1016.0 |
| 20260905075553 | 67 | 0 | 0.0 | 2.0 | 0.00 | 0.00 | 0.00 | 95 | 1016.0 |
| 20260905075053 | 67 | 0 | 0.0 | 2.0 | 0.00 | 0.00 | 0.00 | 95 | 1016.0 |
| 20260905074605 | 67 | 24 | 0.0 | 2.0 | 0.00 | 0.00 | 0.00 | 95 | 1016.0 |
| 20260905074053 | 67 | 0 | 0.0 | 0.0 | 0.00 | 0.00 | 0.00 | 95 | 1015.8 |
| 20260905073553 | 67 | 0 | 0.0 | 0.0 | 0.00 | 0.00 | 0.00 | 95 | 1016.1 |
| 20260905073105 | 67 | 0 | 0.0 | 2.0 | 0.00 | 0.00 | 0.00 | 95 | 1016.0 |
| 20260905072554 | 67 | 0 | 0.0 | 3.0 | 0.00 | 0.00 | 0.00 | 95 | 1016.0 |
| 20260905072053 | 68 | 0 | 1.0 | 3.0 | 0.00 | 0.00 | 0.00 | 94 | 1016.0 |
| 20260905071600 | 68 | 21 | 0.0 | 3.0 | 0.00 | 0.00 | 0.00 | 94 | 1015.9 |
| 20260905071054 | 68 | 19 | 0.0 | 1.0 | 0.00 | 0.00 | 0.00 | 94 | 1015.8 |
| 20260905070553 | 68 | 0 | 0.0 | 1.0 | 0.00 | 0.00 | 0.00 | 94 | 1015.7 |
| 20260905070107 | 68 | 19 | 0.0 | 3.0 | 0.00 | 0.00 | 0.00 | 94 | 1015.7 |
| 20260905065555 | 68 | 19 | 1.0 | 3.0 | 0.00 | 0.00 | 0.00 | 94 | 1015.6 |
| 20260905065053 | 68 | 27 | 1.0 | 2.0 | 0.00 | 0.00 | 0.00 | 94 | 1015.7 |
| 20260905064604 | 68 | 27 | 0.0 | 3.0 | 0.00 | 0.00 | 0.00 | 94 | 1015.7 |
| 20260905064059 | 68 | 0 | 1.0 | 3.0 | 0.00 | 0.00 | 0.00 | 94 | 1015.7 |
| 20260905063555 | 68 | 36 | 1.0 | 3.0 | 0.00 | 0.00 | 0.00 | 94 | 1015.7 |
| 20260905063102 | 68 | 33 | 2.0 | 3.0 | 0.00 | 0.00 | 0.00 | 94 | 1015.6 |
| 20260905062553 | 68 | 32 | 1.0 | 2.0 | 0.00 | 0.00 | 0.00 | 94 | 1015.7 |
| 20260905062053 | 69 | 34 | 1.0 | 3.0 | 0.00 | 0.00 | 0.00 | 93 | 1015.7 |
| 20260905061623 | 69 | 0 | 0.0 | 3.0 | 0.00 | 0.00 | 0.00 | 93 | 1015.7 |
| 20260905061056 | 69 | 29 | 2.0 | 3.0 | 0.00 | 0.00 | 0.00 | 93 | 1015.7 |
| 20260905060553 | 69 | 33 | 0.0 | 3.0 | 0.00 | 0.00 | 0.00 | 93 | 1015.6 |
| 20260905060109 | 70 | 0 | 0.0 | 3.0 | 0.00 | 0.00 | 0.00 | 92 | 1015.6 |
| 20260905055552 | 70 | 30 | 2.0 | 3.0 | 0.00 | 0.00 | 0.00 | 93 | 1015.7 |
| 20260905055053 | 70 | 27 | 2.0 | 3.0 | 0.00 | 0.00 | 0.00 | 93 | 1015.8 |
| 20260905054608 | 70 | 44 | 0.0 | 2.0 | 0.00 | 0.00 | 0.00 | 93 | 1015.8 |
| 20260905054052 | 70 | 44 | 1.0 | 4.0 | 0.00 | 0.00 | 0.00 | 93 | 1015.8 |
| 20260905053558 | 70 | 17 | 0.0 | 4.0 | 0.00 | 0.00 | 0.00 | 93 | 1015.7 |
| 20260905053104 | 70 | 75 | 1.0 | 4.0 | 0.00 | 0.00 | 0.00 | 93 | 1015.7 |
| 20260905052553 | 70 | 38 | 0.0 | 1.0 | 0.00 | 0.00 | 0.00 | 93 | 1015.6 |
| 20260905052053 | 70 | 0 | 0.0 | 0.0 | 0.00 | 0.00 | 0.00 | 93 | 1015.4 |
| 20260905051604 | 70 | 0 | 0.0 | 0.0 | 0.00 | 0.00 | 0.00 | 93 | 1015.2 |
| 20260905051053 | 70 | 0 | 0.0 | 0.0 | 0.00 | 0.00 | 0.00 | 93 | 1015.4 |
| 20260905050553 | 70 | 0 | 0.0 | 1.0 | 0.00 | 0.00 | 0.00 | 93 | 1015.3 |
| 20260905050101 | 70 | 0 | 0.0 | 1.0 | 0.00 | 0.00 | 0.00 | 93 | 1015.1 |
| 20260905045552 | 70 | 41 | 0.0 | 1.0 | 0.00 | 0.00 | 0.00 | 93 | 1015.1 |
| 20260905045053 | 71 | 0 | 0.0 | 1.0 | 0.00 | 0.00 | 0.00 | 93 | 1015.1 |
| 20260905044607 | 71 | 0 | 0.0 | 1.0 | 0.00 | 0.00 | 0.00 | 92 | 1015.3 |
| 20260905044052 | 71 | 41 | 0.0 | 1.0 | 0.00 | 0.00 | 0.00 | 92 | 1015.3 |
| 20260905043552 | 71 | 40 | 0.0 | 1.0 | 0.00 | 0.00 | 0.00 | 92 | 1015.3 |
| 20260905043104 | 71 | 37 | 0.0 | 2.0 | 0.00 | 0.00 | 0.00 | 92 | 1015.3 |
| 20260905042553 | 72 | 37 | 1.0 | 3.0 | 0.00 | 0.00 | 0.00 | 91 | 1015.3 |
| 20260905042053 | 72 | 37 | 1.0 | 3.0 | 0.00 | 0.00 | 0.00 | 91 | 1015.4 |
| 20260905041608 | 73 | 37 | 1.0 | 3.0 | 0.00 | 0.00 | 0.00 | 91 | 1015.4 |
| 20260905041053 | 73 | 0 | 0.0 | 3.0 | 0.00 | 0.00 | 0.00 | 91 | 1015.3 |
| 20260905040553 | 73 | 27 | 0.0 | 3.0 | 0.00 | 0.00 | 0.00 | 91 | 1015.3 |
| 20260905040059 | 73 | 27 | 1.0 | 3.0 | 0.00 | 0.00 | 0.00 | 91 | 1015.3 |
| 20260905035552 | 73 | 0 | 0.0 | 0.0 | 0.00 | 0.00 | 0.00 | 91 | 1015.3 |
| 20260905035053 | 73 | 0 | 0.0 | 0.0 | 0.00 | 0.00 | 0.00 | 91 | 1015.3 |
| 20260905034613 | 74 | 0 | 0.0 | 1.0 | 0.00 | 0.00 | 0.00 | 90 | 1015.3 |
| 20260905034056 | 74 | 0 | 0.0 | 1.0 | 0.00 | 0.00 | 0.00 | 90 | 1015.3 |
| 20260905033552 | 74 | 0 | 0.0 | 1.0 | 0.00 | 0.00 | 0.00 | 90 | 1015.3 |
| 20260905033105 | 74 | 0 | 0.0 | 4.0 | 0.00 | 0.00 | 0.00 | 90 | 1015.4 |
| 20260905032553 | 75 | 0 | 0.0 | 4.0 | 0.00 | 0.00 | 0.00 | 89 | 1015.4 |
| 20260905032053 | 75 | 351 | 1.0 | 5.0 | 0.00 | 0.00 | 0.00 | 89 | 1015.3 |
| 20260905031614 | 75 | 33 | 2.0 | 5.0 | 0.00 | 0.00 | 0.00 | 89 | 1015.3 |
| 20260905031056 | 75 | 22 | 3.0 | 5.0 | 0.00 | 0.00 | 0.00 | 88 | 1015.3 |
| 20260905030553 | 75 | 27 | 3.0 | 4.0 | 0.00 | 0.00 | 0.00 | 88 | 1015.4 |
| 20260905030106 | 76 | 18 | 2.0 | 4.0 | 0.00 | 0.00 | 0.00 | 88 | 1015.3 |
| 20260905025552 | 76 | 37 | 2.0 | 4.0 | 0.00 | 0.00 | 0.00 | 88 | 1015.3 |
| 20260905025057 | 76 | 32 | 2.0 | 5.0 | 0.00 | 0.00 | 0.00 | 88 | 1015.3 |
| 20260905024607 | 77 | 58 | 2.0 | 5.0 | 0.00 | 0.00 | 0.00 | 87 | 1015.2 |
| 20260905024053 | 77 | 37 | 3.0 | 6.0 | 0.00 | 0.00 | 0.00 | 87 | 1015.4 |
| 20260905023557 | 77 | 32 | 3.0 | 6.0 | 0.00 | 0.00 | 0.00 | 87 | 1015.3 |
| 20260905023109 | 77 | 43 | 3.0 | 6.0 | 0.00 | 0.00 | 0.00 | 87 | 1015.1 |
| 20260905022553 | 77 | 27 | 3.0 | 6.0 | 0.00 | 0.00 | 0.00 | 87 | 1014.9 |
| 20260905022054 | 77 | 32 | 4.0 | 6.0 | 0.00 | 0.00 | 0.00 | 87 | 1014.8 |
| 20260905021621 | 77 | 35 | 4.0 | 7.0 | 0.00 | 0.00 | 0.00 | 87 | 1014.8 |
| 20260905021052 | 77 | 32 | 4.0 | 7.0 | 0.00 | 0.00 | 0.00 | 87 | 1014.7 |
| 20260905020552 | 77 | 356 | 4.0 | 7.0 | 0.00 | 0.00 | 0.00 | 87 | 1014.6 |
| 20260905020125 | 77 | 351 | 3.0 | 5.0 | 0.00 | 0.00 | 0.00 | 88 | 1014.5 |
| 20260905015555 | 77 | 15 | 2.0 | 4.0 | 0.00 | 0.00 | 0.00 | 89 | 1014.4 |
| 20260905015055 | 77 | 58 | 1.0 | 3.0 | 0.00 | 0.00 | 0.00 | 89 | 1014.3 |
| 20260905014556 | 77 | 59 | 1.0 | 4.0 | 0.00 | 0.00 | 0.00 | 88 | 1014.3 |
| 20260905014053 | 78 | 56 | 2.0 | 5.0 | 0.00 | 0.00 | 0.00 | 87 | 1014.2 |
| 20260905013552 | 78 | 40 | 2.0 | 5.0 | 0.00 | 0.00 | 0.00 | 87 | 1014.1 |
| 20260905013107 | 78 | 24 | 2.0 | 5.0 | 0.00 | 0.00 | 0.00 | 88 | 1014.2 |
| 20260905012553 | 79 | 39 | 1.0 | 3.0 | 0.00 | 0.00 | 0.00 | 87 | 1014.1 |
| 20260905012053 | 79 | 31 | 0.0 | 3.0 | 0.00 | 0.00 | 0.00 | 87 | 1013.9 |
| 20260905011606 | 79 | 34 | 2.0 | 4.0 | 0.00 | 0.00 | 0.00 | 87 | 1013.8 |
| 20260905011052 | 79 | 31 | 2.0 | 4.0 | 0.00 | 0.00 | 0.00 | 86 | 1013.7 |
| 20260905010553 | 79 | 37 | 2.0 | 4.0 | 0.00 | 0.00 | 0.00 | 86 | 1013.8 |
| 20260905010107 | 80 | 32 | 1.0 | 3.0 | 0.00 | 0.00 | 0.00 | 86 | 1013.7 |
| 20260905005553 | 80 | 30 | 0.0 | 2.0 | 0.00 | 0.00 | 0.00 | 85 | 1013.7 |
| 20260905005052 | 80 | 25 | 0.0 | 2.0 | 0.00 | 0.00 | 0.00 | 85 | 1013.7 |
| 20260905004608 | 81 | 27 | 0.0 | 3.0 | 0.00 | 0.00 | 0.00 | 84 | 1013.6 |
| 20260905004052 | 81 | 23 | 0.0 | 3.0 | 0.00 | 0.00 | 0.00 | 83 | 1013.7 |
| 20260905003553 | 82 | 6 | 1.0 | 3.0 | 0.00 | 0.00 | 0.00 | 83 | 1013.6 |
| 20260905003111 | 82 | 34 | 2.0 | 3.0 | 0.00 | 0.00 | 0.00 | 83 | 1013.6 |
| 20260905002556 | 82 | 26 | 1.0 | 5.0 | 0.00 | 0.00 | 0.00 | 82 | 1013.5 |
| 20260905002053 | 83 | 40 | 2.0 | 5.0 | 0.00 | 0.00 | 0.00 | 82 | 1013.5 |
| 20260905001607 | 83 | 27 | 3.0 | 5.0 | 0.00 | 0.00 | 0.00 | 81 | 1013.5 |
| 20260905001052 | 83 | 20 | 2.0 | 4.0 | 0.00 | 0.00 | 0.00 | 81 | 1013.4 |
| 20260905000553 | 83 | 35 | 1.0 | 5.0 | 0.00 | 0.00 | 0.00 | 81 | 1013.3 |
| 20260905000112 | 84 | 33 | 2.0 | 5.0 | 0.00 | 0.00 | 0.00 | 80 | 1013.3 |
| 20260904235555 | 84 | 13 | 1.0 | 5.0 | 0.00 | 0.00 | 0.00 | 80 | 1013.3 |
| 20260904235052 | 84 | 18 | 1.0 | 5.0 | 0.00 | 0.00 | 0.00 | 79 | 1013.4 |
| 20260904234611 | 85 | 31 | 1.0 | 7.0 | 0.00 | 0.00 | 0.00 | 79 | 1013.4 |
| 20260904234052 | 85 | 30 | 2.0 | 7.0 | 0.00 | 0.00 | 0.00 | 78 | 1013.3 |
| 20260904233554 | 85 | 34 | 4.0 | 7.0 | 0.00 | 0.00 | 0.00 | 78 | 1013.3 |
| 20260904233121 | 86 | 14 | 2.0 | 7.0 | 0.00 | 0.00 | 0.00 | 77 | 1013.2 |
| 20260904232553 | 86 | 31 | 2.0 | 7.0 | 0.00 | 0.00 | 0.00 | 77 | 1013.1 |
| 20260904232054 | 86 | 29 | 2.0 | 6.0 | 0.00 | 0.00 | 0.00 | 76 | 1013.1 |
| 20260904231608 | 87 | 53 | 2.0 | 6.0 | 0.00 | 0.00 | 0.00 | 76 | 1013.1 |
| 20260904231054 | 87 | 25 | 2.0 | 5.0 | 0.00 | 0.00 | 0.00 | 75 | 1013.0 |
| 20260904230553 | 88 | 34 | 1.0 | 5.0 | 0.00 | 0.00 | 0.00 | 75 | 1012.9 |
| 20260904230117 | 88 | 0 | 2.0 | 6.0 | 0.00 | 0.00 | 0.00 | 74 | 1012.9 |
| 20260904225553 | 88 | 16 | 1.0 | 6.0 | 0.00 | 0.00 | 0.00 | 75 | 1012.8 |
| 20260904225056 | 88 | 21 | 2.0 | 6.0 | 0.00 | 0.00 | 0.00 | 74 | 1012.7 |